Stuart, FL

11:22 PM EDT on October 20, 2017 (GMT -0400)
Witham

Weather History for KSUA - February, 2014

Change the Weather History Date:

Thursday, February 13, 2014

  Actual Average Record
Temperature  
Mean Temperature 60 °F -  
Max Temperature 69 °F 74 °F 78 °F (2017)
Min Temperature 51 °F 53 °F 50 °F (2015)
Degree Days  
Heating Degree Days 5    
Growing Degree Days 10 (Base 50)    
Moisture  
Dew Point 52 °F    
Average Humidity 73    
Maximum Humidity 94    
Minimum Humidity 32    
Precipitation  
Precipitation 0.00 in - - ()
Sea Level Pressure  
Sea Level Pressure 29.84 in    
Wind  
Wind Speed 12 mph (WSW)    
Max Wind Speed 22 mph    
Max Gust Speed 34 mph    
Visibility 9 miles    
Events Rain    
Averages and records for this station are not official NWS values.
T = Trace of Precipitation, MM = Missing Value Source: NWS Daily Summary

Daily Weather History Graph

Daily Weather History Graph

Search for Another Location

Airport or City:

Trip Planner

Search our weather history database for the weather conditions in past years. The results will help you decide how hot, cold, wet, or windy it might be!

Date:

Astronomy

Feb. 13, 2014 Rise Set
Actual Time 6:59 AM EST 6:11 PM EST
Civil Twilight 6:35 AM EST 6:35 PM EST
Nautical Twilight 6:07 AM EST 7:02 PM EST
Astronomical Twilight 5:40 AM EST 7:29 PM EST
Moon 5:18 PM EST (2/13) 5:50 AM EST (2/13)
Length of Visible Light 12h 00m
Length of Day
11h 12m
Waxing Gibbous, 98% of the Moon is Illuminated
Feb 13
Waxing Gibbous
Feb 14
Full
Feb 22
Last Quarter
Mar 1
New
Mar 8
First Quarter

Hourly Weather History & Observations

Time (EST) Temp. Dew Point Humidity Pressure Visibility Wind Dir Wind Speed Gust Speed Precip Events Conditions
12:15 AM 62.6 °F 59.0 °F 88% 29.80 in 10.0 mi SSE 11.5 mph - N/A   Clear
12:35 AM 62.6 °F 59.0 °F 88% 29.79 in 10.0 mi South 10.4 mph - N/A   Scattered Clouds
12:55 AM 62.6 °F 59.0 °F 88% 29.78 in 10.0 mi South 11.5 mph 17.3 mph N/A   Mostly Cloudy
1:15 AM 62.6 °F 59.0 °F 88% 29.77 in 10.0 mi South 13.8 mph 17.3 mph N/A   Mostly Cloudy
1:35 AM 62.6 °F 59.0 °F 88% 29.76 in 10.0 mi SSW 8.1 mph - N/A   Scattered Clouds
1:55 AM 62.6 °F 60.8 °F 94% 29.76 in 10.0 mi SSW 8.1 mph - N/A   Clear
2:15 AM 64.4 °F 60.8 °F 88% 29.76 in 10.0 mi SSW 9.2 mph - N/A   Scattered Clouds
2:35 AM 64.4 °F 60.8 °F 88% 29.76 in 10.0 mi SW 8.1 mph - N/A   Scattered Clouds
2:55 AM 64.4 °F 60.8 °F 88% 29.76 in 10.0 mi SW 9.2 mph - N/A   Clear
3:15 AM 64.4 °F 60.8 °F 88% 29.77 in 10.0 mi SW 9.2 mph - N/A   Clear
3:35 AM 66.2 °F 60.8 °F 83% 29.76 in 10.0 mi SW 9.2 mph - N/A   Scattered Clouds
3:55 AM 66.2 °F 60.8 °F 83% 29.76 in 10.0 mi SW 10.4 mph - N/A   Scattered Clouds
4:15 AM 66.2 °F 60.8 °F 83% 29.75 in 10.0 mi SW 10.4 mph - N/A   Mostly Cloudy
4:35 AM 66.2 °F 60.8 °F 83% 29.74 in 10.0 mi SW 8.1 mph - N/A   Scattered Clouds
4:55 AM 66.2 °F 60.8 °F 83% 29.74 in 10.0 mi SW 10.4 mph 16.1 mph N/A   Scattered Clouds
5:15 AM 66.2 °F 60.8 °F 83% 29.74 in 10.0 mi SSW 11.5 mph - N/A   Scattered Clouds
5:35 AM 66.2 °F 60.8 °F 83% 29.73 in 10.0 mi SW 9.2 mph 18.4 mph N/A   Scattered Clouds
5:55 AM 66.2 °F 62.6 °F 88% 29.75 in 10.0 mi SW 12.7 mph 16.1 mph N/A   Scattered Clouds
6:15 AM 68.0 °F 62.6 °F 83% 29.76 in 10.0 mi SW 11.5 mph 20.7 mph N/A   Scattered Clouds
6:47 AM 68.0 °F 64.4 °F 88% 29.77 in 6.0 mi West 18.4 mph 34.5 mph N/A Rain Light Rain
7:35 AM 64.4 °F 59.0 °F 83% 29.81 in 4.0 mi West 20.7 mph 34.5 mph N/A Rain Rain
7:55 AM 62.6 °F 57.2 °F 82% 29.81 in 5.0 mi WNW 18.4 mph 25.3 mph N/A Rain Light Rain
8:10 AM 62.6 °F 57.2 °F 82% 29.83 in 7.0 mi West 16.1 mph 25.3 mph N/A   Overcast
8:47 AM 62.6 °F 55.4 °F 77% 29.83 in 10.0 mi West 18.4 mph 25.3 mph N/A   Mostly Cloudy
9:47 AM 64.4 °F 53.6 °F 68% 29.86 in 7.0 mi West 18.4 mph 27.6 mph N/A   Mostly Cloudy
10:47 AM 68.0 °F 51.8 °F 56% 29.87 in 7.0 mi West 16.1 mph 27.6 mph N/A   Mostly Cloudy
12:47 PM 68.0 °F 44.6 °F 43% 29.84 in 7.0 mi WNW 21.9 mph 29.9 mph N/A   Mostly Cloudy
1:47 PM 69.8 °F 44.6 °F 40% 29.82 in 10.0 mi West 21.9 mph 32.2 mph N/A   Scattered Clouds
2:47 PM 69.8 °F 42.8 °F 38% 29.81 in 10.0 mi West 19.6 mph 28.8 mph N/A   Scattered Clouds
3:47 PM 68.0 °F 41.0 °F 37% 29.82 in 10.0 mi WNW 19.6 mph 31.1 mph N/A   Scattered Clouds
4:47 PM 66.2 °F 37.4 °F 35% 29.85 in 10.0 mi WNW 18.4 mph 28.8 mph N/A   Partly Cloudy
5:47 PM 64.4 °F 33.8 °F 32% 29.89 in 7.0 mi WNW 13.8 mph 27.6 mph N/A   Partly Cloudy
6:47 PM 60.8 °F 37.4 °F 42% 29.90 in 7.0 mi West 10.4 mph - N/A   Partly Cloudy
8:15 PM 57.2 °F 41.0 °F 55% 29.95 in 10.0 mi West 10.4 mph - N/A   Clear
8:35 PM 55.4 °F 42.8 °F 63% 29.96 in 10.0 mi WNW 10.4 mph - N/A   Clear
8:55 PM 55.4 °F 42.8 °F 63% 29.97 in 10.0 mi WNW 8.1 mph - N/A   Clear
9:15 PM 55.4 °F 42.8 °F 63% 29.97 in 10.0 mi WNW 6.9 mph - N/A   Clear
9:35 PM 55.4 °F 42.8 °F 63% 29.97 in 10.0 mi WNW 8.1 mph - N/A   Clear
9:55 PM 53.6 °F 42.8 °F 67% 29.98 in 10.0 mi WNW 6.9 mph - N/A   Clear
10:15 PM 53.6 °F 44.6 °F 72% 29.98 in 10.0 mi West 8.1 mph - N/A   Clear
10:35 PM 53.6 °F 44.6 °F 72% 29.99 in 10.0 mi WNW 8.1 mph - N/A   Clear
10:55 PM 51.8 °F 44.6 °F 76% 29.99 in 10.0 mi West 6.9 mph - N/A   Clear
11:15 PM 51.8 °F 44.6 °F 76% 30.00 in 10.0 mi WNW 5.8 mph - N/A   Clear
11:35 PM 51.8 °F 44.6 °F 76% 30.00 in 10.0 mi WNW 6.9 mph - N/A   Clear
11:55 PM 51.8 °F 44.6 °F 76% 29.99 in 10.0 mi WNW 5.8 mph - N/A   Clear